Weather History for Cape Girardeau, MO

Change the Weather History Date:

Friday, February 8, 2013

  Actual Average Record
Temperature  
Mean Temperature 41 °F 36 °F  
Max Temperature 48 °F 46 °F 66 °F (1990)
Min Temperature 34 °F 26 °F -4 °F (2003)
Degree Days  
Heating Degree Days 24 29  
Month to date heating degree days 217 238  
Since 1 July heating degree days 2716 2976  
Cooling Degree Days 0 0  
Month to date cooling degree days 0 0  
Year to date cooling degree days 0 0  
Moisture  
Dew Point 33 °F    
Average Humidity 75    
Maximum Humidity 86    
Minimum Humidity 64    
Precipitation  
Precipitation 0.00 in 0.13 in 0.40 in (1982)
Month to date precipitation 0.01 0.99  
Year to date precipitation 3.59 4.46  
Sea Level Pressure  
Sea Level Pressure 30.23 in    
Wind  
Wind Speed 14 mph (North)    
Max Wind Speed 14 mph    
Max Gust Speed 17 mph    
Visibility 8 miles    
Events      
T = Trace of Precipitation, MM = Missing Value Source: NWS Daily Summary

Daily Weather History Graph

Daily Weather History Graph

Search for Another Location

Airport:

Trip Planner

Search our weather history database for the weather conditions in past years. The results will help you decide how hot, cold, wet, or windy it might be!

Date:

Astronomy

Feb. 08, 2013 Rise Set
Actual Time 6:54 AM CST 5:30 PM CST
Civil Twilight 6:27 AM CST 5:57 PM CST
Nautical Twilight 5:56 AM CST 6:28 PM CST
Astronomical Twilight 5:26 AM CST 6:59 PM CST
Moon 5:22 AM CST (2/8) 4:04 PM CST (2/8)
Length of Visible Light 11h 30m
Length of Day
10h 36m
Waning Crescent, 3% of the Moon is Illuminated
Feb 8
Waning Crescent
Feb 10
New
Feb 17
First Quarter
Feb 25
Full
Mar 4
Last Quarter

Hourly Weather History & Observations

Time (CST) Temp. Windchill Dew Point Humidity Pressure Visibility Wind Dir Wind Speed Gust Speed Precip Events Conditions
12:03 AM 46.4 °F 40.4 °F 42.8 °F 87% 29.98 in 10.0 mi NNW 13.8 mph 24.2 mph N/A   Overcast
12:53 AM 45.0 °F 36.9 °F 39.9 °F 82% 30.00 in 10.0 mi North 20.7 mph - N/A   Overcast
1:20 AM 44.6 °F 37.2 °F 39.2 °F 81% 30.00 in 10.0 mi North 17.3 mph - N/A   Overcast
1:53 AM 44.1 °F 35.9 °F 39.0 °F 82% 30.02 in 10.0 mi North 19.6 mph 28.8 mph N/A   Overcast
2:43 AM 42.8 °F 34.8 °F 37.4 °F 81% 30.03 in 10.0 mi NNW 17.3 mph 25.3 mph N/A   Overcast
2:53 AM 43.0 °F 35.1 °F 37.9 °F 82% 30.04 in 10.0 mi North 17.3 mph - N/A   Overcast
3:53 AM 42.1 °F 33.6 °F 37.0 °F 82% 30.06 in 10.0 mi NNW 18.4 mph - N/A   Overcast
4:53 AM 39.9 °F 29.7 °F 35.1 °F 83% 30.11 in 7.0 mi NNW 23.0 mph 27.6 mph N/A   Overcast
5:37 AM 39.2 °F 30.5 °F 35.6 °F 87% 30.13 in 6.0 mi NNW 16.1 mph 23.0 mph N/A   Overcast
5:53 AM 39.0 °F 29.6 °F 35.1 °F 86% 30.14 in 5.0 mi North 18.4 mph 23.0 mph N/A   Overcast
6:31 AM 39.2 °F 30.5 °F 33.8 °F 81% 30.16 in 7.0 mi North 16.1 mph - N/A   Overcast
6:53 AM 39.0 °F 29.3 °F 34.0 °F 82% 30.18 in 6.0 mi North 19.6 mph - N/A   Haze
7:53 AM 39.0 °F 30.6 °F 33.1 °F 79% 30.23 in 6.0 mi North 15.0 mph 23.0 mph N/A   Haze
8:53 AM 37.9 °F 28.9 °F 33.1 °F 83% 30.26 in 4.0 mi NNW 16.1 mph - N/A   Haze
9:02 AM 37.4 °F 27.2 °F 33.8 °F 87% 30.26 in 4.0 mi North 19.6 mph - N/A   Overcast
9:53 AM 37.0 °F 28.1 °F 32.0 °F 82% 30.28 in 4.0 mi North 15.0 mph - N/A   Haze
10:12 AM 37.4 °F 28.2 °F 30.2 °F 75% 30.29 in 6.0 mi North 16.1 mph 20.7 mph N/A   Haze
10:53 AM 37.0 °F 27.4 °F 30.0 °F 76% 30.31 in 6.0 mi North 17.3 mph - N/A   Haze
11:53 AM 39.0 °F 30.3 °F 30.9 °F 73% 30.31 in 9.0 mi North 16.1 mph - N/A   Overcast
12:53 PM 39.0 °F 31.8 °F 30.9 °F 73% 30.30 in 10.0 mi North 11.5 mph - N/A   Overcast
1:53 PM 39.9 °F 34.5 °F 30.0 °F 68% 30.30 in 10.0 mi North 8.1 mph - N/A   Overcast
2:53 PM 39.9 °F 33.9 °F 30.0 °F 68% 30.31 in 10.0 mi NNE 9.2 mph - N/A   Overcast
3:53 PM 39.9 °F 32.9 °F 28.9 °F 65% 30.30 in 10.0 mi NNE 11.5 mph - N/A   Overcast
4:53 PM 39.0 °F 32.3 °F 30.0 °F 70% 30.36 in 10.0 mi North 10.4 mph - N/A   Overcast
5:51 PM 39.2 °F 34.2 °F 28.4 °F 65% 30.35 in 10.0 mi NNE 6.9 mph - N/A   Overcast
5:53 PM 39.0 °F 33.4 °F 28.9 °F 67% 30.36 in 10.0 mi NNE 8.1 mph - N/A   Overcast
6:53 PM 37.0 °F 28.9 °F 28.0 °F 70% 30.31 in 10.0 mi NE 12.7 mph - N/A   Overcast
7:53 PM 37.0 °F 28.5 °F 28.0 °F 70% 30.35 in 10.0 mi NE 13.8 mph - N/A   Overcast
8:53 PM 35.1 °F 27.9 °F 27.0 °F 72% 30.38 in 10.0 mi NE 9.2 mph - N/A   Overcast
9:53 PM 35.1 °F 28.6 °F 27.0 °F 72% 30.38 in 10.0 mi NE 8.1 mph - N/A   Overcast
10:53 PM 34.0 °F 28.0 °F 27.0 °F 75% 30.37 in 10.0 mi NE 6.9 mph - N/A   Overcast
11:53 PM 34.0 °F 25.5 °F 26.1 °F 73% 30.36 in 10.0 mi NE 11.5 mph - N/A   Overcast